This is the latest recevied weather packets stored in our database for station/object N9BID. If no packets are shown the sender has not sent any weather packets the latest 10 day(s).
| Time | Temp. | Humidity | Pressure | Rain* | Wind** | Luminosity | Snow |
|---|---|---|---|---|---|---|---|
| 1777935844 | 14.44° C | 43% | 990.9 hPa | 0 mm | - | 155 W/m² | - |
| 1777935543 | 14.44° C | 43% | 990.7 hPa | 0 mm | - | 157 W/m² | - |
| 1777935238 | 15° C | 44% | 990.7 hPa | 0 mm | - | 103 W/m² | - |
| 1777934936 | 15° C | 45% | 990.6 hPa | 0 mm | - | 193 W/m² | - |
| 1777934633 | 15.56° C | 43% | 990.5 hPa | 0 mm | - | 183 W/m² | - |
| 1777934329 | 16.11° C | 45% | 990.6 hPa | 0 mm | - | 304 W/m² | - |
| 1777934025 | 16.11° C | 42% | 990.5 hPa | 0 mm | - | 253 W/m² | - |
| 1777933722 | 15.56° C | 42% | 990.3 hPa | 0 mm | - | 280 W/m² | - |
| 1777933418 | 16.11° C | 40% | 990.3 hPa | 0 mm | - | 147 W/m² | - |
| 1777933117 | 16.11° C | 36% | 990.3 hPa | 0 mm | - | 279 W/m² | - |
| 1777932813 | 15.56° C | 44% | 990.3 hPa | 0 mm | - | 360 W/m² | - |
| 1777932511 | 16.11° C | 44% | 989.9 hPa | 0 mm | - | 245 W/m² | - |
| 1777932207 | 16.11° C | 44% | 990 hPa | 0 mm | - | 200 W/m² | - |
| 1777931905 | 16.11° C | 45% | 989.8 hPa | 0 mm | - | 212 W/m² | - |
| 1777931601 | 16.67° C | 48% | 989.9 hPa | 0 mm | - | 200 W/m² | - |
| 1777931297 | 16.67° C | 47% | 989.6 hPa | 0 mm | - | 378 W/m² | - |
| 1777930994 | 16.67° C | 44% | 989.6 hPa | 0 mm | - | 367 W/m² | - |
| 1777930690 | 16.67° C | 46% | 989.7 hPa | 0 mm | - | 438 W/m² | - |
| 1777930387 | 16.67° C | 45% | 989.5 hPa | 0 mm | - | 323 W/m² | - |
| 1777930084 | 16.67° C | 47% | 989.6 hPa | 0 mm | - | 319 W/m² | - |
| 1777929780 | 16.67° C | 42% | 989.6 hPa | 0 mm | - | 275 W/m² | - |
| 1777929478 | 17.22° C | 41% | 989.6 hPa | 0 mm | - | 275 W/m² | - |
| 1777929174 | 16.67° C | 43% | 989.4 hPa | 0 mm | - | 459 W/m² | - |
| 1777928871 | 16.67° C | 44% | 989.4 hPa | 0 mm | - | 255 W/m² | - |
| 1777928568 | 16.67° C | 45% | 989.3 hPa | 0 mm | - | 288 W/m² | - |
* Rain latest hour (hover to see other rain measurements)
** Current wind speed in m/s (hover to see current wind gust speed)